FHA9120 EDDN-LIRN

Flight info

Callsign FHA9120
Flight time 1h 22m
Altitude 37000
Route BOLSI1C BOLSI Y167 AKANU L603 OLETU Z106 MANAL M736 LIZUM N503 LIKDA DCT BAKOR DCT GOTMO DCT EVULI DCT ERIKA ERIKA1A
Aircraft A320/M-SDE3FGHIRWY/LB1

Departure

Time 2026-04-29 17:30
Airport Nuremberg Airport (EDDN)

Arrival

Time 2026-04-29 18:53
Airport Naples International Airport (LIRN)
Time Latitude Longitude Altitude Speed Heading
2026-04-29 16:54 49.49513 11.07790 1028 ft 0 kts 188°
2026-04-29 17:21 49.49516 11.07791 1025 ft 1 kts 188°
2026-04-29 17:21 49.49533 11.07795 1028 ft 3 kts 191°
2026-04-29 17:21 49.49553 11.07802 1029 ft 2 kts 195°
2026-04-29 17:22 49.49572 11.07811 1030 ft 3 kts 201°
2026-04-29 17:22 49.49588 11.07821 1030 ft 1 kts 207°
2026-04-29 17:22 49.49592 11.07825 1030 ft 0 kts 207°
2026-04-29 17:25 49.49590 11.07790 1028 ft 8 kts 295°
2026-04-29 17:26 49.49600 11.07670 1028 ft 12 kts 272°
2026-04-29 17:26 49.49611 11.07517 1027 ft 15 kts 285°
2026-04-29 17:26 49.49627 11.07368 1027 ft 14 kts 276°
2026-04-29 17:26 49.49649 11.07239 1024 ft 11 kts 323°
2026-04-29 17:27 49.49722 11.07223 1025 ft 11 kts 324°
2026-04-29 17:27 49.49746 11.07104 1023 ft 12 kts 282°
2026-04-29 17:27 49.49760 11.06973 1021 ft 14 kts 278°
2026-04-29 17:27 49.49781 11.06774 1018 ft 24 kts 277°
2026-04-29 17:28 49.49806 11.06488 1018 ft 28 kts 279°
2026-04-29 17:28 49.49838 11.06195 1019 ft 28 kts 277°
2026-04-29 17:28 49.49880 11.05991 1022 ft 10 kts 327°
2026-04-29 17:28 49.49929 11.05955 1021 ft 8 kts 336°
2026-04-29 17:29 49.49995 11.05925 1019 ft 12 kts 359°
2026-04-29 17:29 49.50047 11.06011 1019 ft 12 kts 97°
2026-04-29 17:29 49.50023 11.06269 1019 ft 55 kts 98°
2026-04-29 17:29 49.49971 11.06816 1018 ft 100 kts 98°
2026-04-29 17:30 49.49778 11.08712 1188 ft 153 kts 95°
2026-04-29 17:30 49.49557 11.10228 1980 ft 149 kts 97°
2026-04-29 17:30 49.49340 11.11820 2621 ft 154 kts 96°
2026-04-29 17:30 49.49157 11.13443 3310 ft 153 kts 95°
2026-04-29 17:31 49.49011 11.15143 3695 ft 171 kts 95°
2026-04-29 17:31 49.48853 11.17080 4014 ft 195 kts 95°
2026-04-29 17:31 49.48668 11.19274 4391 ft 218 kts 96°
2026-04-29 17:31 49.48451 11.21715 4804 ft 241 kts 98°
2026-04-29 17:32 49.47836 11.24145 5515 ft 253 kts 127°
2026-04-29 17:32 49.46339 11.25664 6275 ft 271 kts 161°
2026-04-29 17:32 49.44419 11.25925 6998 ft 283 kts 181°
2026-04-29 17:32 49.42438 11.25558 7792 ft 289 kts 187°
2026-04-29 17:33 49.40437 11.25011 8581 ft 294 kts 188°
2026-04-29 17:33 49.38410 11.24482 9422 ft 297 kts 187°
2026-04-29 17:33 49.36343 11.24031 10202 ft 301 kts 186°
2026-04-29 17:33 49.34278 11.23476 10814 ft 311 kts 194°
2026-04-29 17:34 49.32048 11.22900 11031 ft 333 kts 176°
2026-04-29 17:34 49.29748 11.23521 11390 ft 346 kts 163°
2026-04-29 17:34 49.27431 11.24646 12027 ft 352 kts 159°
2026-04-29 17:34 49.25108 11.25944 12720 ft 356 kts 158°
2026-04-29 17:35 49.21954 11.27674 13646 ft 363 kts 160°
2026-04-29 17:35 49.17921 11.29657 14687 ft 370 kts 162°
2026-04-29 17:35 49.15436 11.30780 15285 ft 374 kts 162°
2026-04-29 17:36 49.12954 11.31862 15865 ft 377 kts 163°
2026-04-29 17:36 49.10415 11.32954 16458 ft 381 kts 163°
2026-04-29 17:36 49.07843 11.34058 17070 ft 385 kts 163°
2026-04-29 17:36 49.05253 11.35177 17646 ft 388 kts 162°
2026-04-29 17:37 49.02642 11.36314 18231 ft 392 kts 162°
2026-04-29 17:37 49.00007 11.37467 18771 ft 396 kts 162°
2026-04-29 17:37 48.97341 11.38639 19275 ft 399 kts 162°
2026-04-29 17:37 48.94691 11.39806 19787 ft 402 kts 162°
2026-04-29 17:38 48.91995 11.40992 20305 ft 404 kts 162°
2026-04-29 17:38 48.89273 11.42184 20802 ft 407 kts 162°
2026-04-29 17:38 48.86536 11.43378 21290 ft 410 kts 162°
2026-04-29 17:38 48.83781 11.44575 21780 ft 413 kts 162°
2026-04-29 17:39 48.81004 11.45781 22259 ft 416 kts 162°
2026-04-29 17:39 48.78214 11.46993 22731 ft 419 kts 162°
2026-04-29 17:39 48.75402 11.48213 23193 ft 422 kts 162°
2026-04-29 17:39 48.72565 11.49444 23643 ft 424 kts 162°
2026-04-29 17:40 48.69749 11.50664 24045 ft 427 kts 162°
2026-04-29 17:40 48.66878 11.51902 24431 ft 429 kts 162°
2026-04-29 17:40 48.63992 11.53144 24803 ft 432 kts 162°
2026-04-29 17:40 48.61100 11.54391 25183 ft 434 kts 162°
2026-04-29 17:41 48.58185 11.55650 25547 ft 436 kts 162°
2026-04-29 17:41 48.55266 11.56907 25910 ft 438 kts 162°
2026-04-29 17:41 48.52309 11.58174 26275 ft 441 kts 162°
2026-04-29 17:41 48.49346 11.59443 26598 ft 443 kts 163°
2026-04-29 17:42 48.46370 11.60712 26929 ft 445 kts 164°
2026-04-29 17:42 48.43405 11.61886 27270 ft 447 kts 165°
2026-04-29 17:42 48.40368 11.62988 27619 ft 449 kts 168°
2026-04-29 17:42 48.37258 11.63514 27945 ft 451 kts 177°
2026-04-29 17:43 48.34119 11.63787 28285 ft 453 kts 177°
2026-04-29 17:43 48.30956 11.64067 28623 ft 455 kts 177°
2026-04-29 17:43 48.27793 11.64349 28957 ft 457 kts 177°
2026-04-29 17:43 48.24602 11.64635 29314 ft 459 kts 177°
2026-04-29 17:44 48.21400 11.64919 29644 ft 461 kts 177°
2026-04-29 17:44 48.18190 11.65196 29945 ft 463 kts 178°
2026-04-29 17:44 48.14958 11.65472 30243 ft 465 kts 178°
2026-04-29 17:44 48.11714 11.65753 30488 ft 467 kts 178°
2026-04-29 17:45 48.08457 11.66039 30730 ft 469 kts 178°
2026-04-29 17:45 48.05230 11.66322 30954 ft 471 kts 178°
2026-04-29 17:45 48.01909 11.66609 31161 ft 472 kts 179°
2026-04-29 17:46 47.95386 11.67169 31249 ft 473 kts 179°
2026-04-29 17:46 47.92107 11.67452 31584 ft 472 kts 179°
2026-04-29 17:46 47.88829 11.67734 31921 ft 471 kts 179°
2026-04-29 17:46 47.85561 11.68013 32238 ft 471 kts 179°
2026-04-29 17:47 47.82289 11.68291 32527 ft 471 kts 181°
2026-04-29 17:47 47.79020 11.68568 32825 ft 470 kts 181°
2026-04-29 17:47 47.75744 11.68844 33132 ft 470 kts 181°
2026-04-29 17:47 47.72474 11.69121 33448 ft 470 kts 181°
2026-04-29 17:48 47.69246 11.69397 33756 ft 470 kts 181°
2026-04-29 17:48 47.65979 11.69677 34046 ft 470 kts 181°
2026-04-29 17:48 47.62707 11.69960 34321 ft 470 kts 181°
2026-04-29 17:48 47.59431 11.70240 34560 ft 470 kts 182°
2026-04-29 17:49 47.56164 11.70513 34848 ft 469 kts 182°
2026-04-29 17:49 47.53995 11.70695 35008 ft 469 kts 181°
2026-04-29 17:49 47.50738 11.70969 35243 ft 469 kts 181°
2026-04-29 17:49 47.47470 11.71245 35484 ft 469 kts 181°
2026-04-29 17:50 47.44207 11.71522 35715 ft 469 kts 181°
2026-04-29 17:50 47.40937 11.71802 35925 ft 469 kts 182°
2026-04-29 17:50 47.37674 11.72080 36151 ft 469 kts 182°
2026-04-29 17:50 47.34413 11.72357 36344 ft 469 kts 182°
2026-04-29 17:51 47.31184 11.72628 36569 ft 469 kts 182°
2026-04-29 17:51 47.27920 11.72903 36788 ft 469 kts 181°
2026-04-29 17:51 47.24655 11.73178 37015 ft 469 kts 181°
2026-04-29 17:51 47.21388 11.73456 37155 ft 468 kts 181°
2026-04-29 17:52 47.18136 11.73727 37174 ft 468 kts 181°
2026-04-29 17:52 47.11673 11.74255 37176 ft 468 kts 182°
2026-04-29 17:53 47.05183 11.74788 37172 ft 467 kts 181°
2026-04-29 17:53 46.98699 11.74934 37136 ft 464 kts 187°
2026-04-29 17:54 46.92254 11.74574 37155 ft 463 kts 187°
2026-04-29 17:54 46.85796 11.74212 37146 ft 464 kts 187°
2026-04-29 17:55 46.79372 11.73859 37151 ft 464 kts 187°
2026-04-29 17:55 46.72919 11.73505 37132 ft 463 kts 188°
2026-04-29 17:56 46.66504 11.73163 37148 ft 462 kts 188°
2026-04-29 17:56 46.60049 11.73324 37146 ft 469 kts 176°
2026-04-29 17:57 46.53641 11.75531 37129 ft 473 kts 171°
2026-04-29 17:57 46.47255 11.77880 37138 ft 473 kts 171°
2026-04-29 17:58 46.40871 11.80212 37147 ft 473 kts 171°
2026-04-29 17:58 46.34518 11.82525 37135 ft 473 kts 171°
2026-04-29 17:59 46.28147 11.84845 37169 ft 471 kts 171°
2026-04-29 17:59 46.21779 11.87162 37173 ft 470 kts 171°
2026-04-29 18:00 46.15473 11.89447 37171 ft 470 kts 171°
2026-04-29 18:00 46.09135 11.91740 37155 ft 468 kts 172°
2026-04-29 18:01 46.02803 11.94018 37159 ft 469 kts 171°
2026-04-29 18:01 45.96507 11.96283 37161 ft 469 kts 171°
2026-04-29 18:02 45.90175 11.98556 37139 ft 467 kts 171°
2026-04-29 18:02 45.83869 12.00813 37145 ft 466 kts 171°
2026-04-29 18:03 45.77577 12.03058 37146 ft 465 kts 171°
2026-04-29 18:03 45.71303 12.05293 37120 ft 464 kts 171°
2026-04-29 18:04 45.65071 12.07517 37152 ft 463 kts 171°
2026-04-29 18:04 45.58815 12.09732 37156 ft 462 kts 171°
2026-04-29 18:05 45.52567 12.11936 37146 ft 462 kts 171°
2026-04-29 18:05 45.46326 12.14138 37146 ft 462 kts 171°
2026-04-29 18:06 45.40074 12.16346 37144 ft 462 kts 171°
2026-04-29 18:06 45.33874 12.18527 37137 ft 462 kts 171°
2026-04-29 18:07 45.27622 12.20718 37111 ft 461 kts 171°
2026-04-29 18:07 45.21365 12.22908 37121 ft 461 kts 171°
2026-04-29 18:08 45.15169 12.25079 37120 ft 461 kts 171°
2026-04-29 18:08 45.08931 12.27257 37107 ft 461 kts 170°
2026-04-29 18:09 45.02695 12.29426 37114 ft 461 kts 170°
2026-04-29 18:09 44.96453 12.31582 37124 ft 461 kts 171°
2026-04-29 18:10 44.90215 12.33741 37097 ft 461 kts 170°
2026-04-29 18:10 44.84026 12.35889 37110 ft 461 kts 170°
2026-04-29 18:11 44.77788 12.38037 37107 ft 461 kts 170°
2026-04-29 18:11 44.71548 12.40179 37115 ft 461 kts 170°
2026-04-29 18:12 44.65308 12.42324 37119 ft 460 kts 170°
2026-04-29 18:12 44.59106 12.44451 37125 ft 460 kts 170°
2026-04-29 18:13 44.52880 12.46578 37118 ft 460 kts 170°
2026-04-29 18:13 44.46683 12.48686 37118 ft 460 kts 170°
2026-04-29 18:14 44.40460 12.50793 37119 ft 459 kts 170°
2026-04-29 18:14 44.34241 12.52901 37118 ft 459 kts 170°
2026-04-29 18:15 44.28069 12.54997 37104 ft 458 kts 170°
2026-04-29 18:15 44.21859 12.57102 37110 ft 458 kts 170°
2026-04-29 18:16 44.15691 12.59176 37070 ft 457 kts 171°
2026-04-29 18:16 44.09500 12.61255 37063 ft 457 kts 171°
2026-04-29 18:17 44.03311 12.63333 37062 ft 457 kts 171°
2026-04-29 18:17 43.97131 12.65399 37060 ft 456 kts 171°
2026-04-29 18:18 43.90993 12.67458 37059 ft 456 kts 171°
2026-04-29 18:18 43.84817 12.69532 37059 ft 456 kts 170°
2026-04-29 18:19 43.78646 12.71587 37067 ft 455 kts 171°
2026-04-29 18:19 43.72508 12.73621 37073 ft 456 kts 171°
2026-04-29 18:20 43.66328 12.75660 37065 ft 456 kts 170°
2026-04-29 18:20 43.60162 12.77697 37084 ft 456 kts 171°
2026-04-29 18:21 43.53985 12.79730 37077 ft 455 kts 171°
2026-04-29 18:21 43.47847 12.81747 37063 ft 455 kts 171°
2026-04-29 18:22 43.41677 12.83776 37067 ft 455 kts 171°
2026-04-29 18:22 43.35504 12.85806 37068 ft 455 kts 171°
2026-04-29 18:23 43.29376 12.87813 37048 ft 455 kts 171°
2026-04-29 18:23 43.23202 12.89831 37046 ft 454 kts 171°
2026-04-29 18:24 43.17103 12.91980 37046 ft 455 kts 167°
2026-04-29 18:24 43.11045 12.94624 37052 ft 457 kts 165°
2026-04-29 18:25 43.05014 12.97366 37050 ft 456 kts 166°
2026-04-29 18:25 42.98967 13.00001 37056 ft 455 kts 166°
2026-04-29 18:26 42.92911 13.02571 37058 ft 455 kts 166°
2026-04-29 18:26 42.86889 13.05117 37052 ft 456 kts 166°
2026-04-29 18:27 42.80831 13.07690 37075 ft 455 kts 166°
2026-04-29 18:27 42.74777 13.10256 37079 ft 455 kts 166°
2026-04-29 18:28 42.68733 13.12809 37078 ft 455 kts 166°
2026-04-29 18:28 42.62685 13.15374 37081 ft 454 kts 166°
2026-04-29 18:29 42.56665 13.17921 37092 ft 454 kts 167°
2026-04-29 18:29 42.50610 13.20456 37092 ft 454 kts 167°
2026-04-29 18:30 42.44570 13.22990 37077 ft 454 kts 167°
2026-04-29 18:30 42.38565 13.25506 37090 ft 454 kts 167°
2026-04-29 18:31 42.32525 13.28035 37096 ft 453 kts 167°
2026-04-29 18:31 42.27500 13.30135 36850 ft 453 kts 167°
2026-04-29 18:31 42.24489 13.31393 36238 ft 453 kts 167°
2026-04-29 18:32 42.21474 13.32648 35600 ft 452 kts 167°
2026-04-29 18:32 42.15839 13.36246 34669 ft 453 kts 148°
2026-04-29 18:32 42.13406 13.38954 34217 ft 454 kts 139°
2026-04-29 18:33 42.11113 13.41886 33671 ft 451 kts 140°
2026-04-29 18:33 42.08841 13.44777 33148 ft 448 kts 139°
2026-04-29 18:33 42.06579 13.47642 32663 ft 444 kts 140°
2026-04-29 18:33 42.04362 13.50442 32119 ft 442 kts 140°
2026-04-29 18:34 42.02115 13.53269 31508 ft 442 kts 140°
2026-04-29 18:34 42.00596 13.55179 31102 ft 442 kts 139°
2026-04-29 18:34 41.97620 13.58925 30323 ft 441 kts 139°
2026-04-29 18:34 41.95378 13.61750 29662 ft 440 kts 139°
2026-04-29 18:35 41.93139 13.64570 29002 ft 440 kts 139°
2026-04-29 18:35 41.90906 13.67378 28343 ft 438 kts 139°
2026-04-29 18:35 41.88704 13.70144 27712 ft 437 kts 139°
2026-04-29 18:35 41.86481 13.72930 27088 ft 436 kts 139°
2026-04-29 18:36 41.84261 13.75709 26475 ft 434 kts 139°
2026-04-29 18:36 41.82051 13.78475 25867 ft 432 kts 139°
2026-04-29 18:36 41.79854 13.81222 25278 ft 430 kts 139°
2026-04-29 18:36 41.77666 13.83959 24716 ft 428 kts 139°
2026-04-29 18:37 41.75519 13.86639 24156 ft 426 kts 139°
2026-04-29 18:37 41.73348 13.89342 23597 ft 425 kts 138°
2026-04-29 18:37 41.71183 13.92033 22944 ft 423 kts 138°
2026-04-29 18:37 41.69033 13.94706 22299 ft 421 kts 138°
2026-04-29 18:38 41.66884 13.97380 21658 ft 420 kts 138°
2026-04-29 18:38 41.64777 14.00005 21047 ft 418 kts 138°
2026-04-29 18:38 41.62648 14.02649 20450 ft 415 kts 138°
2026-04-29 18:38 41.60582 14.05349 19861 ft 414 kts 135°
2026-04-29 18:39 41.58597 14.08153 19267 ft 414 kts 134°
2026-04-29 18:39 41.56695 14.10970 18713 ft 413 kts 133°
2026-04-29 18:39 41.54784 14.13849 18125 ft 411 kts 133°
2026-04-29 18:39 41.52887 14.16700 17486 ft 410 kts 133°
2026-04-29 18:40 41.50977 14.19532 16849 ft 409 kts 133°
2026-04-29 18:40 41.49059 14.22333 16239 ft 408 kts 134°
2026-04-29 18:40 41.47128 14.25124 15636 ft 407 kts 134°
2026-04-29 18:40 41.45202 14.27896 15041 ft 406 kts 134°
2026-04-29 18:41 41.39220 14.35649 13278 ft 398 kts 140°
2026-04-29 18:41 41.37137 14.38084 12645 ft 395 kts 140°
2026-04-29 18:42 41.35073 14.40495 12037 ft 393 kts 140°
2026-04-29 18:42 41.32937 14.42728 11433 ft 388 kts 149°
2026-04-29 18:42 41.30670 14.44626 11094 ft 375 kts 149°
2026-04-29 18:42 41.28568 14.46374 11017 ft 345 kts 150°
2026-04-29 18:43 41.26554 14.47782 11031 ft 311 kts 166°
2026-04-29 18:43 41.24530 14.48448 11019 ft 291 kts 163°
2026-04-29 18:43 41.22777 14.49641 10880 ft 276 kts 146°
2026-04-29 18:43 41.21300 14.51176 10625 ft 265 kts 141°
2026-04-29 18:44 41.19916 14.52775 10209 ft 262 kts 140°
2026-04-29 18:44 41.18532 14.54338 9824 ft 259 kts 142°
2026-04-29 18:44 41.17126 14.55836 9521 ft 269 kts 143°
2026-04-29 18:44 41.15613 14.57368 9210 ft 274 kts 145°
2026-04-29 18:45 41.14070 14.58874 8904 ft 275 kts 146°
2026-04-29 18:45 41.12517 14.60350 8598 ft 273 kts 146°
2026-04-29 18:45 41.10969 14.61803 8295 ft 272 kts 147°
2026-04-29 18:45 41.09444 14.63229 7998 ft 270 kts 147°
2026-04-29 18:46 41.07856 14.64533 7693 ft 266 kts 163°
2026-04-29 18:46 41.06082 14.64671 7397 ft 254 kts 200°
2026-04-29 18:46 41.04673 14.63421 7108 ft 243 kts 235°
2026-04-29 18:46 41.03755 14.61501 6507 ft 251 kts 241°
2026-04-29 18:47 41.02876 14.59531 5830 ft 246 kts 240°
2026-04-29 18:47 41.02010 14.57659 5430 ft 231 kts 240°
2026-04-29 18:47 41.01187 14.55899 5100 ft 220 kts 240°
2026-04-29 18:47 41.00391 14.54198 4780 ft 211 kts 240°
2026-04-29 18:48 40.99633 14.52576 4481 ft 204 kts 240°
2026-04-29 18:48 40.98905 14.51019 4180 ft 199 kts 240°
2026-04-29 18:48 40.98184 14.49478 3886 ft 195 kts 240°
2026-04-29 18:48 40.97469 14.47952 3602 ft 194 kts 240°
2026-04-29 18:49 40.96761 14.46441 3330 ft 193 kts 239°
2026-04-29 18:49 40.96051 14.44924 3048 ft 192 kts 239°
2026-04-29 18:49 40.95376 14.43488 2782 ft 180 kts 240°
2026-04-29 18:49 40.94733 14.42118 2519 ft 169 kts 239°
2026-04-29 18:50 40.94150 14.40876 2294 ft 151 kts 240°
2026-04-29 18:50 40.93611 14.39728 2061 ft 142 kts 239°
2026-04-29 18:50 40.93092 14.38623 1864 ft 141 kts 239°
2026-04-29 18:50 40.92574 14.37520 1667 ft 141 kts 238°
2026-04-29 18:51 40.92058 14.36421 1460 ft 141 kts 237°
2026-04-29 18:51 40.91544 14.35329 1271 ft 142 kts 236°
2026-04-29 18:51 40.91022 14.34219 1060 ft 142 kts 235°
2026-04-29 18:51 40.90512 14.33090 857 ft 144 kts 237°
2026-04-29 18:52 40.90004 14.31962 641 ft 141 kts 230°
2026-04-29 18:52 40.89456 14.30884 365 ft 142 kts 236°
2026-04-29 18:52 40.88944 14.29800 251 ft 131 kts 236°
2026-04-29 18:52 40.88591 14.29055 268 ft 53 kts 237°
2026-04-29 18:53 40.88476 14.28818 273 ft 27 kts 237°
2026-04-29 18:53 40.88401 14.28785 275 ft 7 kts 163°
2026-04-29 18:53 40.88363 14.28807 275 ft 5 kts 153°
2026-04-29 18:53 40.88337 14.28829 275 ft 4 kts 144°
2026-04-29 18:54 40.88314 14.28850 275 ft 8 kts 147°
2026-04-29 18:54 40.88249 14.28898 276 ft 11 kts 154°
2026-04-29 18:54 40.88188 14.28851 277 ft 16 kts 231°
2026-04-29 18:54 40.88107 14.28714 281 ft 19 kts 233°
2026-04-29 18:55 40.88029 14.28579 284 ft 19 kts 233°
2026-04-29 18:55 40.87950 14.28454 287 ft 15 kts 239°
2026-04-29 18:55 40.87941 14.28374 289 ft 7 kts 273°
2026-04-29 18:55 40.87940 14.28312 292 ft 8 kts 248°
2026-04-29 18:56 40.87895 14.28284 291 ft 3 kts 179°
2026-04-29 18:56 40.87877 14.28283 294 ft 0 kts 185°